Wind_Speed
15 15 16 16 16 17 17 18 18 18 19 21 22 21 21 21 20 20 20 20 20 21 21 21 21 20 20 20 20 20 20 20 20 20 20 20 20 20
17 18 18 18 18 19 20 21 21 21 21 22 22 23 23 22 22 21 21 21 22 22 22 22 21 21 20 20 21 21 22 22 22 21 21 21 21 22
20 20 20 20 21 22 22 23 23 23 23 23 23 24 24 24 24 23 22 22 23 23 23 22 22 22 22 22 22 23 23 23 23 23 23 23 24 24
21 22 22 23 23 24 24 24 24 24 24 23 24 24 25 26 25 25 25 24 24 24 25 25 25 24 24 25 25 24 25 25 25 25 26 25 25 25
23 23 24 24 24 25 26 26 26 26 26 26 25 26 26 26 27 28 28 27 27 27 27 27 27 27 27 27 27 27 27 27 28 28 27 26 26 27
24 25 25 25 26 27 27 28 28 28 27 26 27 27 28 29 30 30 29 30 29 29 30 30 30 30 29 29 30 30 30 30 30 29 29 28 28 28
26 27 27 27 28 29 28 28 28 29 28 28 29 29 30 30 30 31 31 31 32 32 31 32 32 31 31 31 32 32 32 32 32 31 30 30 30 30
28 28 27 28 29 29 29 30 30 30 30 30 30 31 31 32 32 32 33 33 33 34 34 34 34 33 33 33 34 34 34 34 34 33 33 33 33 33
29 29 29 29 30 30 30 31 31 31 31 32 32 33 32 33 34 34 35 35 35 35 36 36 36 36 36 36 36 36 36 36 36 35 35 35 35 35
30 30 30 30 31 31 31 31 32 33 33 33 34 33 33 33 34 35 35 36 35 36 37 38 38 38 38 38 38 37 37 37 37 37 37 36 36 37
31 31 32 31 32 33 33 33 33 33 34 33 32 32 33 34 34 35 36 36 37 38 39 40 39 39 39 39 39 38 38 37 37 37 37 36 36 37
32 33 33 33 34 35 34 33 33 33 33 33 33 34 35 36 36 37 38 38 39 39 39 40 40 40 40 39 39 39 39 39 39 38 37 37 37 37
34 33 34 35 35 36 36 35 33 33 34 34 35 36 36 37 37 38 38 39 38 38 39 39 39 40 40 40 40 40 40 40 39 38 38 37 37 38
35 35 35 35 36 36 36 35 35 35 35 36 36 36 37 37 37 37 37 37 38 39 39 39 39 39 39 39 39 39 39 38 38 37 37 38 38 39
36 36 36 36 36 36 36 35 36 36 37 37 36 36 37 37 37 37 38 38 38 39 39 39 38 38 38 38 37 37 37 37 36 36 37 38 39 39
37 36 36 36 36 36 36 36 37 37 37 37 37 37 37 37 37 38 38 38 38 38 38 38 38 38 38 38 37 36 36 37 37 38 38 37 37 37
36 37 37 36 35 35 36 36 36 36 36 36 36 36 36 36 36 37 37 37 37 37 37 38 38 38 37 37 37 36 36 37 37 37 37 36 36 35
36 35 35 35 35 35 35 35 35 35 36 36 36 36 36 36 37 37 37 37 37 37 38 38 38 37 36 35 35 35 35 35 35 35 35 34 34 33
34 34 34 35 36 36 35 35 35 36 36 36 35 36 36 37 37 37 37 37 37 37 36 36 36 36 35 34 34 34 34 33 32 32 32 32 32 32
35 35 35 35 35 35 35 35 35 35 35 35 35 35 35 36 36 36 36 36 36 36 36 35 35 34 33 33 32 32 32 31 31 30 31 31 32 32
35 34 34 34 34 34 34 34 34 35 35 34 34 35 35 35 35 35 35 34 34 35 35 34 34 33 32 31 30 29 30 30 29 29 30 30 30 31
33 33 34 33 32 32 32 33 33 33 33 33 33 33 33 33 33 33 33 33 33 33 33 32 32 31 30 29 29 29 29 29 29 29 29 29 29 30
32 32 32 31 31 31 31 32 32 32 32 32 32 32 33 33 33 33 32 32 32 32 31 31 30 29 29 28 27 27 27 28 28 28 28 28 29 29
Wind_Direction
269 271 273 276 278 279 280 281 283 283 282 279 278 279 279 278 277 275 276 277 279 280 278 278 278 277 276 275 277 278 280 279 277 275 275 274 274 275
272 274 274 277 277 279 281 282 283 282 283 282 279 278 278 279 279 277 278 279 278 277 277 278 277 277 277 278 277 277 278 278 277 275 274 273 273 273
272 273 274 276 277 279 282 283 284 283 284 282 279 278 277 278 278 276 278 279 278 276 276 275 276 276 277 278 278 278 277 276 276 275 275 274 273 271
274 275 275 277 279 279 280 282 285 285 284 282 280 280 280 277 276 274 275 277 278 275 274 275 275 275 275 276 277 278 279 277 275 274 273 273 272 271
275 274 274 276 278 280 280 282 283 285 284 282 280 279 280 276 277 276 275 275 275 275 274 274 274 273 275 276 277 278 279 278 275 274 273 272 272 271
276 276 276 278 279 279 280 281 282 282 282 282 281 279 279 278 278 278 276 273 273 274 274 273 273 273 273 274 275 276 278 278 277 274 271 269 269 270
276 277 279 280 280 280 282 281 281 281 280 281 281 280 278 278 278 278 277 275 273 274 273 273 274 274 274 274 275 275 276 276 276 273 270 269 269 268
277 278 279 279 281 281 281 282 282 281 280 280 280 280 279 278 276 276 275 274 275 275 273 272 272 273 273 274 275 274 274 274 273 271 270 269 268 269
279 278 278 280 282 282 283 283 282 282 281 281 280 279 279 278 276 276 275 274 275 275 273 273 273 274 274 274 274 274 273 273 271 269 269 268 268 268
280 280 281 282 282 283 284 283 282 280 280 279 280 281 280 279 279 277 276 275 276 277 276 274 273 274 274 274 273 273 272 271 269 268 267 267 266 267
280 280 280 281 282 283 283 283 282 281 280 278 279 281 281 280 281 279 278 278 278 278 278 276 274 274 274 274 274 273 271 270 268 267 267 266 267 267
279 279 279 280 281 282 282 282 282 282 282 281 280 281 281 281 280 281 281 280 280 279 278 278 276 275 274 274 273 272 270 269 268 267 266 266 267 268
280 280 281 282 281 280 281 280 281 281 281 281 281 282 281 281 280 281 281 280 279 279 278 278 277 277 275 275 273 272 271 270 268 268 266 266 267 269
280 280 281 283 281 281 281 282 282 282 282 282 281 281 281 281 281 280 280 279 280 279 279 279 278 277 276 276 274 273 271 271 270 268 267 267 267 269
278 279 280 281 281 281 281 281 281 282 282 282 281 281 281 281 281 280 279 280 280 279 279 278 277 276 275 276 276 273 272 272 271 269 268 267 267 268
278 277 279 280 280 280 280 280 281 281 282 282 281 281 281 281 281 281 281 281 281 280 278 277 277 277 278 278 277 276 275 273 271 269 268 268 267 267
278 277 278 278 279 279 280 281 281 282 281 281 282 282 281 281 281 281 282 283 282 279 277 278 278 279 278 278 277 276 275 274 271 269 268 268 268 268
278 277 276 277 277 278 279 280 280 281 283 284 284 283 282 281 281 281 281 281 280 280 280 281 280 278 278 277 277 276 275 274 272 269 268 268 268 268
277 277 277 277 278 279 280 280 281 282 283 284 284 283 282 281 282 281 280 281 281 283 284 284 282 279 278 277 275 274 274 273 272 270 269 268 267 266
276 276 277 278 279 279 279 280 281 282 282 283 283 283 282 281 282 282 282 282 283 283 283 283 283 281 279 277 274 273 273 273 271 270 269 268 267 266
276 277 277 279 279 279 279 279 281 282 281 281 281 281 282 284 285 284 284 283 283 282 281 282 282 280 279 277 275 274 274 274 272 271 269 268 267 266
276 277 278 279 279 278 279 280 280 281 281 281 281 282 283 285 285 284 283 282 282 281 280 279 279 279 278 277 276 276 276 275 273 271 269 269 270 269
278 278 279 281 281 280 282 282 282 282 281 282 284 285 285 284 285 284 283 282 281 281 279 278 278 276 275 276 275 275 275 275 274 273 271 269 269 269
Height
5879 5879 5878 5878 5877 5877 5877 5876 5876 5875 5875 5873 5872 5871 5870 5869 5868 5867 5866 5865 5864 5863 5862 5861 5860 5859 5859 5858 5857 5857 5856 5855 5854 5854 5853 5852 5851 5850
5875 5874 5873 5873 5873 5872 5871 5871 5870 5870 5869 5868 5867 5866 5864 5864 5862 5861 5860 5859 5858 5857 5856 5855 5855 5854 5853 5852 5852 5851 5850 5849 5848 5848 5847 5846 5846 5845
5869 5869 5868 5868 5867 5866 5865 5865 5864 5863 5862 5861 5860 5859 5858 5857 5856 5855 5854 5853 5852 5851 5850 5849 5848 5847 5847 5846 5845 5844 5843 5842 5842 5841 5841 5840 5839 5838
5863 5862 5862 5861 5861 5860 5859 5858 5857 5856 5855 5854 5852 5851 5851 5850 5849 5848 5847 5846 5845 5844 5843 5842 5841 5840 5840 5839 5838 5837 5836 5835 5834 5834 5833 5832 5832 5831
5857 5856 5855 5854 5853 5853 5852 5851 5850 5849 5848 5847 5845 5844 5843 5842 5841 5840 5840 5839 5838 5836 5835 5834 5834 5833 5832 5831 5830 5829 5828 5827 5827 5826 5825 5824 5824 5823
5849 5848 5847 5846 5846 5845 5844 5843 5842 5841 5840 5839 5838 5836 5835 5834 5833 5832 5831 5830 5829 5828 5827 5826 5825 5824 5823 5823 5822 5821 5820 5819 5818 5817 5816 5816 5815 5815
5842 5840 5840 5839 5838 5837 5836 5834 5833 5832 5831 5830 5829 5828 5827 5825 5824 5823 5822 5821 5820 5819 5818 5817 5816 5815 5814 5813 5812 5811 5811 5809 5808 5808 5807 5807 5806 5806
5834 5833 5832 5831 5830 5828 5827 5826 5825 5823 5822 5821 5820 5818 5817 5816 5815 5814 5813 5812 5811 5810 5808 5808 5807 5806 5805 5804 5803 5801 5800 5799 5798 5798 5797 5797 5796 5796
5825 5824 5823 5822 5820 5819 5818 5816 5815 5814 5813 5812 5810 5809 5808 5806 5805 5804 5802 5801 5801 5799 5798 5797 5796 5795 5794 5793 5792 5790 5789 5788 5787 5787 5786 5786 5786 5785
5816 5815 5814 5813 5811 5810 5808 5807 5805 5804 5803 5801 5800 5799 5797 5795 5794 5793 5791 5790 5789 5788 5786 5786 5785 5784 5783 5781 5780 5779 5778 5777 5776 5775 5775 5775 5774 5774
5807 5806 5805 5803 5802 5800 5798 5797 5795 5793 5792 5791 5789 5788 5786 5784 5783 5781 5780 5779 5777 5776 5774 5773 5773 5772 5771 5770 5768 5767 5766 5765 5764 5764 5763 5763 5763 5762
5797 5796 5795 5794 5792 5790 5788 5787 5785 5784 5782 5780 5779 5777 5776 5774 5772 5770 5769 5767 5766 5765 5763 5761 5760 5759 5759 5758 5756 5755 5754 5753 5752 5752 5752 5751 5751 5751
5787 5786 5785 5783 5782 5780 5778 5777 5775 5773 5772 5770 5768 5766 5764 5762 5760 5759 5757 5756 5754 5753 5751 5749 5748 5746 5745 5745 5743 5742 5741 5740 5740 5739 5739 5739 5739 5739
5777 5776 5774 5772 5771 5769 5767 5766 5764 5763 5761 5759 5758 5755 5753 5751 5749 5747 5746 5744 5742 5740 5738 5736 5735 5733 5732 5731 5730 5729 5728 5727 5727 5727 5727 5726 5726 5726
5766 5765 5763 5761 5760 5758 5757 5755 5754 5752 5750 5748 5746 5744 5742 5740 5738 5736 5734 5732 5730 5728 5725 5723 5722 5721 5719 5718 5717 5717 5716 5716 5714 5714 5714 5714 5714 5713
5755 5754 5752 5751 5749 5747 5746 5744 5742 5740 5739 5737 5735 5733 5731 5729 5727 5725 5723 5721 5719 5717 5714 5712 5710 5709 5707 5706 5705 5704 5703 5703 5702 5702 5701 5701 5701 5701
5744 5742 5741 5740 5738 5737 5735 5733 5731 5729 5727 5725 5723 5721 5719 5717 5715 5713 5711 5709 5707 5705 5703 5700 5698 5696 5695 5694 5692 5692 5691 5690 5689 5689 5688 5688 5688 5689
5732 5731 5730 5728 5727 5725 5723 5721 5719 5718 5716 5714 5712 5710 5708 5706 5704 5702 5700 5697 5695 5693 5691 5688 5686 5685 5684 5682 5681 5679 5678 5677 5677 5676 5676 5676 5676 5677
5721 5719 5718 5717 5715 5714 5712 5710 5709 5707 5705 5703 5701 5699 5697 5695 5692 5690 5688 5686 5684 5681 5679 5677 5674 5673 5671 5671 5670 5668 5666 5666 5666 5665 5665 5665 5665 5666
5710 5708 5707 5706 5704 5703 5701 5699 5697 5696 5694 5692 5690 5688 5686 5683 5681 5679 5677 5675 5672 5670 5668 5666 5664 5662 5660 5659 5658 5657 5656 5655 5655 5655 5655 5654 5654 5654
5698 5697 5696 5694 5693 5692 5690 5688 5687 5685 5683 5681 5679 5677 5675 5672 5670 5668 5665 5663 5661 5659 5658 5656 5653 5651 5649 5648 5647 5647 5646 5645 5645 5644 5644 5644 5644 5644
5687 5686 5685 5684 5682 5681 5679 5678 5676 5674 5672 5670 5668 5666 5664 5661 5659 5657 5655 5653 5651 5649 5647 5645 5643 5641 5640 5639 5638 5637 5637 5636 5635 5634 5634 5634 5634 5634
5678 5677 5675 5674 5673 5671 5670 5667 5665 5664 5662 5660 5658 5656 5653 5651 5649 5647 5644 5642 5640 5639 5637 5635 5633 5632 5631 5629 5628 5628 5627 5627 5626 5625 5625 5624 5625 5624